Regional Weather Roundup
Issued by NWS Albany, NY

Home | Current Version | Previous Version | Text Only | Print | Product List | Glossary On
Versions: 1 2 3 4 5 6 7 8 9 10 11 12 13 14 15 16 17 18 19 20 21 22 23 24 25 26 27 28 29 30 31 32 33 34 35 36 37 38 39 40 41 42 43 44 45 46 47 48 49 50
360
ASUS41 KALY 200910
RWRALY

NEW YORK STATE HOURLY WEATHER ROUNDUP
NATIONAL WEATHER SERVICE ALBANY NY
400 AM EST FRI JAN 20 2017

NOTE: "FAIR" INDICATES FEW OR NO CLOUDS BELOW 12,000 FEET WITH NO
SIGNIFICANT WEATHER AND/OR NO OBSTRUCTIONS TO VISIBILITY.

NYZ032-033-038>043-046>054-057>066-NYZ062>081-082-084-201000-
EAST


CITY           SKY/WX    TMP DP  RH WIND       PRES   REMARKS
ALBANY         CLOUDY    35  32  88 CALM      30.02F
GLENS FALLS    CLOUDY    34  30  85 CALM      30.00S
POUGHKEEPSIE   CLOUDY    36  30  79 CALM      30.02F
NEWBURGH       CLOUDY    37  30  75 CALM      30.04R
MONTGOMERY     CLOUDY    36  33  89 CALM      30.01S
WHITE PLAINS   CLOUDY    38  28  67 CALM      30.01F
ISLIP          CLOUDY    40  32  73 NW3       30.02S
NEW YORK CITY  CLOUDY    41  31  67 NE9       30.02F
CENTRAL PARK   CLOUDY    40  30  67 E6        30.04F
$$

NYZ005>009-017-018-044>046-055-056-201000-
CENTRAL


CITY           SKY/WX    TMP DP  RH WIND       PRES   REMARKS
FULTON         CLOUDY    35  32  88 E3        29.97F
SYRACUSE       CLOUDY    35  31  85 SE6       29.97F WCI  30
ROME           CLOUDY    33  33 100 E5        30.00F FOG     WCI  29
ELMIRA         CLOUDY    34  31  88 NE3       29.92F
BINGHAMTON     CLOUDY    31  30  96 S5        29.93F WCI  26
MONTICELLO     CLOUDY    34  30  86 CALM      29.99F
$$

NYZ026>034-041>043-087-201000-
NORTH


CITY           SKY/WX    TMP DP  RH WIND       PRES   REMARKS
WATERTOWN      CLOUDY    35  34  96 S3        29.98F
FORT DRUM      NOT AVBL
OGDENSBURG     CLOUDY    34  34  99 S5        29.99S WCI  30
MASSENA        CLOUDY    33  33 100 CALM      30.01S
SARANAC LAKE   CLOUDY    30  27  88 W3        29.91F
PLATTSBURGH    CLOUDY    34  29  82 CALM      30.00S
$$

NYZ001>004-010>016-019>021-085-201000-
WEST


CITY           SKY/WX    TMP DP  RH WIND       PRES   REMARKS
NIAGARA FALLS  CLOUDY    35  32  88 E7        29.88F FOG     WCI  29
BUFFALO        CLOUDY    35  33  92 E7        29.88F WCI  29
DUNKIRK        CLOUDY    31  30  96 E3        29.86F
JAMESTOWN      CLOUDY    32  30  93 SE9       29.83F VSB<1/4 WCI  24
WELLSVILLE     FOG       33  31  92 S8        29.87F VSB 1/4 WCI  26
ROCHESTER      CLOUDY    36  32  85 SE8       29.92F WCI  30
PENN YAN       CLOUDY    36  31  82 SE5       29.93F WCI  32
$$

             KEY
       WCI = WIND CHILL INDEX
       VSB = VISIBILITY
       HX  = HEAT INDEX
$$




USA.gov is the U.S. government's official web portal to all federal, state and local government web resources and services.